Date,TemperatureHighF,TemperatureAvgF,TemperatureLowF,DewpointHighF,DewpointAvgF,DewpointLowF,HumidityHigh,HumidityAvg,HumidityLow,PressureMaxIn,PressureMinIn,WindSpeedMaxMPH,WindSpeedAvgMPH,GustSpeedMaxMPH,PrecipitationSumIn
2013-3-1,37.2,30.5,25.0,25.2,18.8,10.6,78,62,46,30.11,29.89,19,7,19,0.00
2013-3-2,35.8,28.3,24.6,14.2,11.2,7.7,56,49,37,30.11,30.02,24,7,24,0.00
2013-3-3,34.7,27.1,20.8,13.9,9.4,6.4,58,48,38,30.09,30.01,19,7,19,0.00
2013-3-4,36.9,28.1,18.3,23.4,11.8,6.3,76,52,33,30.18,29.98,14,5,14,0.00
2013-3-5,33.1,29.8,26.8,26.1,22.7,18.5,87,75,56,29.99,29.70,30,12,30,0.00
2013-3-6,36.1,31.7,26.2,25.5,22.5,19.8,83,69,58,30.20,29.77,17,7,17,0.01
2013-3-7,40.3,34.0,27.9,27.4,22.6,15.4,81,65,45,30.38,30.15,14,6,14,0.00
2013-3-8,41.5,31.6,21.7,21.8,16.8,14.2,74,56,40,30.51,30.30,8,3,8,0.00
2013-3-9,42.8,35.6,27.1,30.6,23.1,13.0,69,61,52,30.30,29.86,23,10,23,0.01
2013-3-10,59.2,50.0,42.3,40.0,34.6,29.1,66,57,48,29.88,29.65,22,8,22,0.02
2013-3-11,54.1,44.7,33.6,47.1,38.5,27.0,91,79,52,29.72,29.57,27,10,27,0.08
2013-3-12,36.3,32.5,30.0,27.8,22.9,17.5,83,69,49,29.95,29.71,26,11,26,0.00
2013-3-13,30.9,26.9,24.4,22.7,13.8,6.0,77,59,40,30.27,29.87,27,12,27,0.04
2013-3-14,46.4,32.6,23.0,24.6,11.5,-0.2,73,45,19,30.35,30.07,15,6,15,0.00
2013-3-15,50.5,38.4,29.8,38.5,30.6,25.0,89,75,49,30.07,29.75,12,5,12,0.24
2013-3-16,41.4,35.4,28.8,38.4,29.6,18.4,93,80,61,30.02,29.56,14,6,14,0.00
2013-3-17,36.7,30.9,28.0,19.8,16.0,11.6,66,55,39,30.18,29.96,27,10,27,0.02
2013-3-18,34.9,31.2,27.7,31.1,24.4,14.7,86,77,58,29.97,29.57,35,13,35,0.05
2013-3-19,37.4,27.5,20.3,14.6,7.6,0.7,60,45,24,30.00,29.67,34,17,34,0.12
2013-3-20,29.3,24.2,17.8,10.3,2.1,-12.9,66,41,19,30.05,29.91,24,12,24,0.00
2013-3-21,33.8,23.7,14.2,15.2,8.3,4.6,73,54,32,30.01,29.24,21,8,21,0.06
2013-3-22,44.6,31.1,20.5,18.3,7.8,-5.7,67,43,18,30.07,29.94,17,5,17,0.00
2013-3-23,42.8,32.1,24.1,18.3,15.1,10.6,65,51,36,30.10,29.91,17,5,17,0.00
2013-3-24,36.9,31.9,27.5,21.6,18.2,13.4,67,58,41,29.93,29.52,34,11,34,0.11
2013-3-25,36.7,32.0,27.7,27.4,23.2,19.6,86,71,51,29.93,29.49,25,9,25,0.05
2013-3-26,41.9,35.2,32.2,28.0,23.7,19.1,76,64,44,30.19,29.91,26,9,26,0.00
2013-3-27,44.4,36.5,31.8,28.1,20.0,6.3,74,55,24,30.31,30.13,22,8,22,0.00
2013-3-28,54.3,39.8,28.2,21.3,11.0,0.7,57,36,15,30.35,30.20,19,5,19,0.00
2013-3-29,56.5,42.6,29.1,20.4,9.4,-2.1,62,32,13,30.35,30.19,21,4,21,0.00
2013-3-30,58.3,44.6,28.9,29.6,19.1,8.3,57,39,21,30.20,29.86,17,4,17,0.00
2013-3-31,64.2,50.0,-1.8,45.8,30.3,-12.1,90,53,16,29.86,29.65,28,9,28,0.01